When you browse on this site, cookies collect data to enhance your experience and personalize the content and advertising you see.
Visit our Privacy Policy to learn more. By continuing to use the site, you agree to this use of cookies and data.
  • Em Portugal
  • Lista de países
  • Para 7 dias
  • Temperatura da água
  • Mapas de satélite
  • Mapa do tempo
  • Widgets de tempo
  • user-avatar
    Iniciar Sessão

    Previsão horária em Hakodate

    Hoje, 19 Abril, Sexta-feira

    Tempo Temperatura Precipitação Vento Pressão Humidade
    00:00 +12°C° 0 mm 2 m/s 752 mmHg 75%
    01:00 +10°C° 0.3 mm 3 m/s 752 mmHg 82%
    02:00 +10°C° 0.3 mm 4 m/s 752 mmHg 88%
    03:00 +10°C° 0 mm 4 m/s 752 mmHg 94%
    04:00 +8°C° 0.6 mm 4 m/s 752 mmHg 92%
    05:00 +7°C° 0.6 mm 5 m/s 753 mmHg 90%
    06:00 +7°C° 0.6 mm 5 m/s 753 mmHg 88%
    07:00 +7°C° 0 mm 5 m/s 754 mmHg 80%
    08:00 +7°C° 0 mm 6 m/s 754 mmHg 72%
    09:00 +7°C° 0 mm 6 m/s 755 mmHg 64%
    10:00 +6°C° 0 mm 7 m/s 755 mmHg 58%
    11:00 +6°C° 0 mm 8 m/s 755 mmHg 52%
    12:00 +6°C° 0 mm 8 m/s 756 mmHg 46%
    13:00 +5°C° 0 mm 8 m/s 756 mmHg 45%
    14:00 +5°C° 0 mm 8 m/s 756 mmHg 45%
    15:00 +5°C° 0 mm 7 m/s 756 mmHg 45%
    16:00 +5°C° 0 mm 7 m/s 756 mmHg 47%
    17:00 +4°C° 0 mm 6 m/s 756 mmHg 48%
    18:00 +3°C° 0 mm 6 m/s 757 mmHg 50%
    19:00 +3°C° 0 mm 6 m/s 757 mmHg 52%
    20:00 +3°C° 0 mm 6 m/s 757 mmHg 55%
    21:00 +3°C° 0 mm 5 m/s 757 mmHg 57%
    22:00 +3°C° 0 mm 6 m/s 757 mmHg 60%
    23:00 +3°C° 0 mm 6 m/s 757 mmHg 64%

    Amanhã, 20 Abril, Sábado

    Tempo Temperatura Precipitação Vento Pressão Humidade
    00:00 +3°C° 0 mm 7 m/s 757 mmHg 67%
    01:00 +3°C° 0 mm 7 m/s 757 mmHg 70%
    02:00 +3°C° 0 mm 7 m/s 756 mmHg 73%
    03:00 +3°C° 0 mm 7 m/s 756 mmHg 76%
    04:00 +3°C° 0 mm 7 m/s 756 mmHg 69%
    05:00 +3°C° 0 mm 6 m/s 756 mmHg 62%
    06:00 +4°C° 0 mm 6 m/s 756 mmHg 54%
    07:00 +5°C° 0 mm 7 m/s 757 mmHg 49%
    08:00 +6°C° 0 mm 7 m/s 757 mmHg 43%
    09:00 +7°C° 0 mm 8 m/s 757 mmHg 38%
    10:00 +7°C° 0 mm 8 m/s 757 mmHg 37%
    11:00 +7°C° 0 mm 8 m/s 757 mmHg 37%
    12:00 +7°C° 0 mm 9 m/s 757 mmHg 36%
    13:00 +7°C° 0 mm 8 m/s 757 mmHg 37%
    14:00 +7°C° 0 mm 8 m/s 757 mmHg 38%
    15:00 +7°C° 0 mm 8 m/s 757 mmHg 38%
    16:00 +6°C° 0 mm 7 m/s 757 mmHg 42%
    17:00 +5°C° 0 mm 6 m/s 757 mmHg 46%
    18:00 +5°C° 0 mm 5 m/s 757 mmHg 49%
    19:00 +3°C° 0 mm 5 m/s 758 mmHg 51%
    20:00 +4°C° 0 mm 4 m/s 758 mmHg 54%
    21:00 +4°C° 0 mm 3 m/s 758 mmHg 56%
    22:00 +3°C° 0 mm 3 m/s 758 mmHg 56%
    23:00 +3°C° 0 mm 3 m/s 758 mmHg 57%

    Depois de amanhã, 21 Abril, Domingo

    Tempo Temperatura Precipitação Vento Pressão Humidade
    00:00 +3°C° 0 mm 3 m/s 758 mmHg 57%
    01:00 +4°C° 0 mm 2 m/s 758 mmHg 57%
    02:00 +4°C° 0 mm 2 m/s 758 mmHg 58%
    03:00 +5°C° 0 mm 1 m/s 758 mmHg 58%
    04:00 +6°C° 0 mm 1 m/s 758 mmHg 61%
    05:00 +5°C° 0 mm 2 m/s 758 mmHg 64%
    06:00 +6°C° 0 mm 2 m/s 758 mmHg 67%
    07:00 +7°C° 0 mm 2 m/s 758 mmHg 65%
    08:00 +9°C° 0 mm 3 m/s 758 mmHg 64%
    09:00 +11°C° 0 mm 3 m/s 758 mmHg 62%
    10:00 +11°C° 0 mm 4 m/s 757 mmHg 58%
    11:00 +12°C° 0 mm 5 m/s 757 mmHg 55%
    12:00 +13°C° 0 mm 5 m/s 757 mmHg 51%
    13:00 +12°C° 0 mm 5 m/s 757 mmHg 52%
    14:00 +12°C° 0 mm 5 m/s 756 mmHg 53%
    15:00 +10°C° 0 mm 5 m/s 756 mmHg 54%
    16:00 +11°C° 0 mm 4 m/s 756 mmHg 58%
    17:00 +10°C° 0 mm 3 m/s 756 mmHg 62%
    18:00 +9°C° 0 mm 3 m/s 757 mmHg 66%
    19:00 +8°C° 0 mm 2 m/s 757 mmHg 69%
    20:00 +8°C° 0 mm 2 m/s 757 mmHg 73%
    21:00 +7°C° 0 mm 2 m/s 758 mmHg 77%
    22:00 +7°C° 0 mm 2 m/s 758 mmHg 78%
    23:00 +7°C° 0 mm 2 m/s 758 mmHg 79%

    22 Abril, Segunda-feira

    Tempo Temperatura Precipitação Vento Pressão Humidade
    00:00 +7°C° 0 mm 2 m/s 758 mmHg 81%
    01:00 +6°C° 0 mm 2 m/s 758 mmHg 84%
    02:00 +6°C° 0 mm 2 m/s 758 mmHg 87%
    03:00 +6°C° 0 mm 2 m/s 758 mmHg 90%
    04:00 +6°C° 0 mm 2 m/s 758 mmHg 90%
    05:00 +6°C° 0 mm 2 m/s 759 mmHg 90%
    06:00 +7°C° 0 mm 1 m/s 759 mmHg 90%
    07:00 +10°C° 0 mm 1 m/s 759 mmHg 75%
    08:00 +13°C° 0 mm 1 m/s 759 mmHg 60%
    09:00 +15°C° 0 mm 0 m/s 759 mmHg 45%
    10:00 +16°C° 0 mm 1 m/s 760 mmHg 43%
    11:00 +16°C° 0 mm 2 m/s 760 mmHg 41%
    12:00 +16°C° 0 mm 3 m/s 760 mmHg 38%
    13:00 +14°C° 0 mm 3 m/s 759 mmHg 39%
    14:00 +14°C° 0 mm 4 m/s 759 mmHg 39%
    15:00 +13°C° 0 mm 4 m/s 759 mmHg 39%
    16:00 +12°C° 0 mm 4 m/s 759 mmHg 45%
    17:00 +11°C° 0 mm 3 m/s 760 mmHg 51%
    18:00 +10°C° 0 mm 3 m/s 760 mmHg 58%
    19:00 +9°C° 0 mm 2 m/s 760 mmHg 59%
    20:00 +8°C° 0 mm 2 m/s 761 mmHg 61%
    21:00 +9°C° 0 mm 1 m/s 761 mmHg 62%
    22:00 +9°C° 0 mm 1 m/s 761 mmHg 61%
    23:00 +8°C° 0 mm 1 m/s 761 mmHg 60%

    23 Abril, Terça-feira

    Tempo Temperatura Precipitação Vento Pressão Humidade
    00:00 +8°C° 0 mm 1 m/s 760 mmHg 59%
    01:00 +8°C° 0 mm 1 m/s 760 mmHg 60%
    02:00 +8°C° 0 mm 1 m/s 760 mmHg 61%
    03:00 +7°C° 0 mm 1 m/s 760 mmHg 62%
    04:00 +8°C° 0 mm 1 m/s 760 mmHg 60%
    05:00 +8°C° 0 mm 1 m/s 760 mmHg 59%
    06:00 +8°C° 0 mm 2 m/s 759 mmHg 57%
    07:00 +10°C° 0 mm 2 m/s 759 mmHg 52%
    08:00 +13°C° 0 mm 1 m/s 759 mmHg 46%
    09:00 +15°C° 0 mm 1 m/s 759 mmHg 41%
    10:00 +15°C° 0 mm 2 m/s 759 mmHg 41%
    11:00 +16°C° 0 mm 2 m/s 758 mmHg 41%
    12:00 +17°C° 0 mm 3 m/s 758 mmHg 41%
    13:00 +17°C° 0 mm 4 m/s 758 mmHg 45%
    14:00 +16°C° 0 mm 5 m/s 757 mmHg 48%
    15:00 +15°C° 0 mm 6 m/s 757 mmHg 52%
    16:00 +14°C° 0 mm 5 m/s 757 mmHg 58%
    17:00 +13°C° 0 mm 5 m/s 757 mmHg 64%
    18:00 +10°C° 0 mm 5 m/s 757 mmHg 70%
    19:00 +10°C° 0 mm 5 m/s 757 mmHg 74%
    20:00 +9°C° 0 mm 5 m/s 757 mmHg 79%
    21:00 +10°C° 0 mm 4 m/s 758 mmHg 83%
    22:00 +10°C° 0 mm 4 m/s 758 mmHg 85%
    23:00 +8°C° 0 mm 4 m/s 758 mmHg 88%

    24 Abril, Quarta-feira

    Tempo Temperatura Precipitação Vento Pressão Humidade
    00:00 +8°C° 0 mm 4 m/s 758 mmHg 90%
    01:00 +8°C° 0 mm 4 m/s 758 mmHg 91%
    02:00 +8°C° 0 mm 4 m/s 758 mmHg 92%
    03:00 +8°C° 0 mm 4 m/s 758 mmHg 94%
    04:00 +8°C° 0 mm 4 m/s 758 mmHg 93%
    05:00 +10°C° 0 mm 3 m/s 758 mmHg 92%
    06:00 +10°C° 0 mm 3 m/s 758 mmHg 91%
    07:00 +12°C° 0 mm 3 m/s 758 mmHg 83%
    08:00 +14°C° 0 mm 3 m/s 758 mmHg 75%
    09:00 +17°C° 0 mm 3 m/s 758 mmHg 68%
    10:00 +18°C° 0 mm 3 m/s 758 mmHg 65%
    11:00 +18°C° 0 mm 3 m/s 758 mmHg 63%
    12:00 +19°C° 0 mm 3 m/s 757 mmHg 60%
    13:00 +19°C° 0 mm 3 m/s 757 mmHg 61%
    14:00 +19°C° 0 mm 3 m/s 756 mmHg 61%
    15:00 +19°C° 0 mm 3 m/s 756 mmHg 61%
    16:00 +18°C° 0 mm 2 m/s 755 mmHg 67%
    17:00 +17°C° 0 mm 2 m/s 755 mmHg 73%
    18:00 +16°C° 0 mm 1 m/s 755 mmHg 80%
    19:00 +15°C° 0.1 mm 1 m/s 755 mmHg 82%
    20:00 +15°C° 0.1 mm 1 m/s 754 mmHg 85%
    21:00 +13°C° 0.1 mm 0 m/s 754 mmHg 87%
    22:00 +14°C° 0.3 mm 1 m/s 753 mmHg 88%
    23:00 +14°C° 0.3 mm 1 m/s 752 mmHg 88%
    Mostrar mais